Погода в Дивном

Россия / Калининградская область     54°45′21″N   20°00′47″E
темп.,
°C
ветер,
м/с
пор.,
м/с
влажн.,
%
обл.,
%
осадки,
мм/ч
давл.,
гПа
погр.,
м
31 июля, сб
сб3123:00+20з813590 0.0 1005994
02:00+19з711650 0.0 1005780
05:00+19зюз58680 0.0 1005460
08:00+20ююз67645 0.0 1005458
11:00+23ююз5855100 0.0 1005648
14:00+24юз59549 0.1 10041070
17:00+21зсз69755 2.1 1004683
20:00+20сз35736 2.4 1004259
1 августа, вс
вс123:00+19ююз58715 0.3 1005479
02:00+19зюз911630 0.4 10051038
05:00+18зюз9117461 0.0 10051039
08:00+18юз81076100 0.1 1006852
11:00+20юз676839 0.0 10071060
14:00+22зюз4758100 0.0 10071000
17:00+21юз2361100 0.1 1006367
20:00+19зсз45778 0.8 1006277
2 августа, пн
пн223:00+17зсз358755 1.1 1007180
02:00+17зсз4577100 1.8 1007420
05:00+17з5778100 0.0 1006446
08:00+18з687799 0.1 1006915
11:00+19з797319 1.1 10071065
14:00+20з7106517 2.5 10071352
17:00+19зсз9115979 0.3 10081493
20:00+19з911626 0.3 10071168
3 августа, вт
вт323:00+18з9127459 0.3 1008882
02:00+17з811816 2.5 1009612
05:00+16сз57825 1.8 1009419
08:00+19сз46650 2.1 10111314
11:00+20зсз33546 0.1 10121429
14:00+20зюз4359100 0.1 1012976
17:00+20юз236210 0.1 1012872
20:00+18ссз2272100 0.1 1012127
4 августа, ср
ср423:00+16в227978 0.0 101289
02:00+15вюв5787100 0.0 1011175
05:00+17юз7988100 1.2 1010358
08:00+16ю5689100 5.6 1011350
11:00+19ююз5680100 2.2 1011912
14:00+20юз666585 2.8 10101029
17:00+19зюз456923 0.1 1011970
20:00+18сз6880100 0.6 1011541